• In Austria
  • List of Countries
  • For 7 days
  • Water Temperature
  • Satellite Maps
  • Weather Map
  • News
  • Weather Widgets
  • user-avatar
    Login

    Hourly Weather Tanger

    Today, 19 September, Wednesday

    Time Temperature Precipitation Wind Pressure Humidity
    00:00 +25°C° 0 mm 1 mps 761 mmHg 78%
    01:00 +25°C° 0 mm 1 mps 761 mmHg 78%
    02:00 +25°C° 0 mm 1 mps 761 mmHg 78%
    03:00 +25°C° 0 mm 1 mps 761 mmHg 79%
    04:00 +25°C° 0 mm 1 mps 761 mmHg 78%
    05:00 +25°C° 0 mm 1 mps 761 mmHg 78%
    06:00 +24°C° 0 mm 2 mps 761 mmHg 78%
    07:00 +26°C° 0 mm 2 mps 761 mmHg 70%
    08:00 +28°C° 0 mm 2 mps 761 mmHg 63%
    09:00 +30°C° 0 mm 2 mps 762 mmHg 55%
    10:00 +31°C° 0 mm 2 mps 762 mmHg 51%
    11:00 +33°C° 0 mm 3 mps 762 mmHg 46%
    12:00 +35°C° 0 mm 3 mps 762 mmHg 42%
    13:00 +35°C° 0 mm 3 mps 761 mmHg 42%
    14:00 +35°C° 0 mm 3 mps 761 mmHg 42%
    15:00 +35°C° 0 mm 4 mps 761 mmHg 41%
    16:00 +34°C° 0 mm 3 mps 761 mmHg 46%
    17:00 +33°C° 0 mm 3 mps 761 mmHg 51%
    18:00 +30°C° 0 mm 3 mps 761 mmHg 56%
    19:00 +29°C° 0 mm 3 mps 761 mmHg 60%
    20:00 +28°C° 0 mm 3 mps 762 mmHg 65%
    21:00 +27°C° 0 mm 3 mps 762 mmHg 70%
    22:00 +27°C° 0 mm 3 mps 762 mmHg 71%
    23:00 +26°C° 0 mm 3 mps 762 mmHg 72%

    Tomorrow, 20 September, Thursday

    Time Temperature Precipitation Wind Pressure Humidity
    00:00 +26°C° 0 mm 4 mps 762 mmHg 74%
    01:00 +25°C° 0 mm 4 mps 761 mmHg 75%
    02:00 +25°C° 0 mm 4 mps 761 mmHg 76%
    03:00 +25°C° 0 mm 4 mps 761 mmHg 78%
    04:00 +23°C° 0 mm 4 mps 761 mmHg 78%
    05:00 +23°C° 0 mm 4 mps 761 mmHg 79%
    06:00 +23°C° 0 mm 4 mps 761 mmHg 79%
    07:00 +26°C° 0 mm 4 mps 761 mmHg 73%
    08:00 +27°C° 0 mm 4 mps 761 mmHg 66%
    09:00 +29°C° 0 mm 4 mps 762 mmHg 60%
    10:00 +30°C° 0 mm 4 mps 762 mmHg 55%
    11:00 +33°C° 0 mm 4 mps 762 mmHg 51%
    12:00 +34°C° 0 mm 4 mps 761 mmHg 46%
    13:00 +34°C° 0 mm 4 mps 761 mmHg 46%
    14:00 +34°C° 0 mm 4 mps 761 mmHg 46%
    15:00 +34°C° 0 mm 5 mps 760 mmHg 46%
    16:00 +33°C° 0 mm 4 mps 760 mmHg 52%
    17:00 +32°C° 0 mm 4 mps 760 mmHg 57%
    18:00 +30°C° 0 mm 4 mps 760 mmHg 63%
    19:00 +28°C° 0 mm 4 mps 760 mmHg 68%
    20:00 +27°C° 0 mm 4 mps 761 mmHg 74%
    21:00 +26°C° 0 mm 4 mps 761 mmHg 79%
    22:00 +26°C° 0 mm 4 mps 761 mmHg 79%
    23:00 +25°C° 0 mm 4 mps 761 mmHg 79%

    Day after tomorrow, 21 September, Friday

    Time Temperature Precipitation Wind Pressure Humidity
    00:00 +25°C° 0 mm 4 mps 761 mmHg 80%
    01:00 +25°C° 0 mm 3 mps 760 mmHg 80%
    02:00 +25°C° 0 mm 3 mps 760 mmHg 80%
    03:00 +25°C° 0 mm 3 mps 760 mmHg 79%
    04:00 +24°C° 0 mm 3 mps 760 mmHg 79%
    05:00 +24°C° 0 mm 3 mps 760 mmHg 79%
    06:00 +24°C° 0 mm 3 mps 760 mmHg 79%
    07:00 +26°C° 0 mm 3 mps 761 mmHg 73%
    08:00 +27°C° 0 mm 3 mps 761 mmHg 67%
    09:00 +29°C° 0 mm 3 mps 761 mmHg 61%
    10:00 +30°C° 0 mm 3 mps 761 mmHg 57%
    11:00 +31°C° 0 mm 3 mps 761 mmHg 52%
    12:00 +34°C° 0 mm 3 mps 761 mmHg 47%
    13:00 +34°C° 0 mm 3 mps 761 mmHg 47%
    14:00 +34°C° 0 mm 4 mps 760 mmHg 46%
    15:00 +34°C° 0 mm 4 mps 760 mmHg 46%
    16:00 +33°C° 0 mm 4 mps 760 mmHg 50%
    17:00 +32°C° 0 mm 4 mps 760 mmHg 54%
    18:00 +30°C° 0 mm 4 mps 760 mmHg 58%
    19:00 +29°C° 0 mm 4 mps 760 mmHg 62%
    20:00 +27°C° 0 mm 4 mps 761 mmHg 67%
    21:00 +26°C° 0 mm 4 mps 761 mmHg 71%
    22:00 +26°C° 0 mm 4 mps 761 mmHg 71%
    23:00 +26°C° 0 mm 4 mps 761 mmHg 71%

    22 September, Saturday

    Time Temperature Precipitation Wind Pressure Humidity
    00:00 +25°C° 0 mm 5 mps 761 mmHg 71%
    01:00 +25°C° 0 mm 5 mps 761 mmHg 71%
    02:00 +25°C° 0 mm 5 mps 761 mmHg 70%
    03:00 +25°C° 0 mm 5 mps 761 mmHg 70%
    04:00 +25°C° 0 mm 4 mps 761 mmHg 69%
    05:00 +23°C° 0 mm 4 mps 761 mmHg 69%
    06:00 +23°C° 0 mm 4 mps 761 mmHg 68%
    07:00 +26°C° 0 mm 4 mps 761 mmHg 61%
    08:00 +28°C° 0 mm 5 mps 762 mmHg 54%
    09:00 +30°C° 0 mm 5 mps 762 mmHg 47%
    10:00 +32°C° 0 mm 5 mps 762 mmHg 41%
    11:00 +34°C° 0 mm 6 mps 762 mmHg 36%
    12:00 +35°C° 0 mm 6 mps 762 mmHg 30%
    13:00 +35°C° 0 mm 6 mps 762 mmHg 30%
    14:00 +35°C° 0 mm 7 mps 761 mmHg 29%
    15:00 +35°C° 0 mm 7 mps 761 mmHg 29%
    16:00 +34°C° 0 mm 7 mps 761 mmHg 34%
    17:00 +32°C° 0 mm 7 mps 761 mmHg 40%
    18:00 +29°C° 0 mm 7 mps 761 mmHg 45%
    19:00 +28°C° 0 mm 7 mps 762 mmHg 50%
    20:00 +27°C° 0 mm 7 mps 762 mmHg 55%
    21:00 +26°C° 0 mm 7 mps 762 mmHg 59%
    22:00 +26°C° 0 mm 7 mps 762 mmHg 59%
    23:00 +24°C° 0 mm 7 mps 762 mmHg 58%

    23 September, Sunday

    Time Temperature Precipitation Wind Pressure Humidity
    00:00 +24°C° 0 mm 7 mps 762 mmHg 58%
    01:00 +24°C° 0 mm 7 mps 762 mmHg 60%
    02:00 +23°C° 0 mm 6 mps 761 mmHg 61%
    03:00 +23°C° 0 mm 6 mps 761 mmHg 63%
    04:00 +23°C° 0 mm 6 mps 761 mmHg 64%
    05:00 +22°C° 0 mm 6 mps 761 mmHg 65%
    06:00 +22°C° 0 mm 6 mps 761 mmHg 66%
    07:00 +24°C° 0 mm 6 mps 762 mmHg 60%
    08:00 +27°C° 0 mm 6 mps 762 mmHg 54%
    09:00 +29°C° 0 mm 6 mps 762 mmHg 49%
    10:00 +30°C° 0 mm 5 mps 762 mmHg 44%
    11:00 +33°C° 0 mm 5 mps 762 mmHg 40%
    12:00 +35°C° 0 mm 5 mps 762 mmHg 36%
    13:00 +35°C° 0 mm 5 mps 761 mmHg 36%
    14:00 +35°C° 0 mm 5 mps 761 mmHg 36%
    15:00 +35°C° 0 mm 5 mps 760 mmHg 36%
    16:00 +33°C° 0 mm 4 mps 760 mmHg 42%
    17:00 +32°C° 0 mm 4 mps 760 mmHg 47%
    18:00 +30°C° 0 mm 4 mps 760 mmHg 53%
    19:00 +28°C° 0 mm 4 mps 761 mmHg 57%
    20:00 +27°C° 0 mm 3 mps 761 mmHg 61%
    21:00 +26°C° 0 mm 3 mps 762 mmHg 65%
    22:00 +26°C° 0 mm 3 mps 761 mmHg 63%
    23:00 +25°C° 0 mm 3 mps 761 mmHg 61%

    24 September, Monday

    Time Temperature Precipitation Wind Pressure Humidity
    00:00 +25°C° 0 mm 3 mps 761 mmHg 60%
    01:00 +25°C° 0 mm 3 mps 761 mmHg 59%
    02:00 +25°C° 0 mm 3 mps 761 mmHg 59%
    03:00 +25°C° 0 mm 2 mps 760 mmHg 58%
    04:00 +25°C° 0 mm 2 mps 761 mmHg 58%
    05:00 +25°C° 0 mm 2 mps 761 mmHg 57%
    06:00 +24°C° 0 mm 2 mps 761 mmHg 57%
    07:00 +27°C° 0 mm 2 mps 761 mmHg 51%
    08:00 +29°C° 0 mm 2 mps 761 mmHg 46%
    09:00 +31°C° 0 mm 1 mps 761 mmHg 41%
    10:00 +32°C° 0 mm 1 mps 761 mmHg 38%
    11:00 +34°C° 0 mm 1 mps 761 mmHg 34%
    12:00 +36°C° 0 mm 2 mps 761 mmHg 31%
    13:00 +36°C° 0 mm 2 mps 761 mmHg 31%
    14:00 +36°C° 0 mm 3 mps 761 mmHg 32%
    15:00 +35°C° 0 mm 4 mps 760 mmHg 33%
    16:00 +34°C° 0 mm 4 mps 761 mmHg 38%
    17:00 +32°C° 0 mm 4 mps 761 mmHg 43%
    18:00 +29°C° 0 mm 5 mps 761 mmHg 49%
    19:00 +28°C° 0 mm 5 mps 761 mmHg 54%
    20:00 +27°C° 0 mm 5 mps 761 mmHg 60%
    21:00 +26°C° 0 mm 6 mps 762 mmHg 65%
    22:00 +24°C° 0 mm 6 mps 762 mmHg 67%
    23:00 +24°C° 0 mm 6 mps 762 mmHg 68%
    Show more